Time,TemperatureF,DewpointF,PressureIn,WindDirection,WindDirectionDegrees,WindSpeedMPH,WindSpeedGustMPH,Humidity,HourlyPrecipIn,Conditions,Clouds,dailyrainin,SoftwareType,DateUTC
2013-04-24 00:03:00,73.0,-99.9,-100.00,North,-999,-999.0,-999.0,-999,-99.99,,,-99.99,,2013-04-24 05:03:00,
2013-04-24 00:13:00,73.0,-99.9,-100.00,North,-999,-999.0,-999.0,-999,-99.99,,,-99.99,,2013-04-24 05:13:00,
2013-04-24 00:22:00,73.0,-99.9,-100.00,North,-999,-999.0,-999.0,-999,-99.99,,,-99.99,,2013-04-24 05:22:00,
2013-04-24 00:42:00,73.0,-99.9,30.01,North,-999,-999.0,-999.0,-999,-99.99,,,-99.99,,2013-04-24 05:42:00,
2013-04-24 01:02:00,73.0,-99.9,-100.00,North,-999,-999.0,-999.0,-999,-99.99,,,-99.99,,2013-04-24 06:02:00,
2013-04-24 01:12:00,73.0,-99.9,30.02,North,-999,-999.0,-999.0,-999,-99.99,,,-99.99,,2013-04-24 06:12:00,
2013-04-24 01:22:00,73.0,-99.9,-100.00,North,-999,-999.0,-999.0,-999,-99.99,,,-99.99,,2013-04-24 06:22:00,
2013-04-24 01:42:00,73.0,-99.9,30.02,North,-999,-999.0,-999.0,-999,-99.99,,,-99.99,,2013-04-24 06:42:00,
2013-04-24 02:11:00,73.0,-99.9,30.01,North,-999,-999.0,-999.0,-999,-99.99,,,-99.99,,2013-04-24 07:11:00,
2013-04-24 02:22:00,73.0,-99.9,-100.00,North,-999,-999.0,-999.0,-999,-99.99,,,-99.99,,2013-04-24 07:22:00,
2013-04-24 02:42:00,73.0,-99.9,30.01,North,-999,-999.0,-999.0,-999,-99.99,,,-99.99,,2013-04-24 07:42:00,
2013-04-24 03:12:00,72.0,-99.9,30.00,North,-999,-999.0,-999.0,-999,-99.99,,,-99.99,,2013-04-24 08:12:00,
2013-04-24 03:22:00,72.0,-99.9,-100.00,North,-999,-999.0,-999.0,-999,-99.99,,,-99.99,,2013-04-24 08:22:00,
2013-04-24 03:42:00,72.0,-99.9,29.99,North,-999,-999.0,-999.0,-999,-99.99,,,-99.99,,2013-04-24 08:42:00,
2013-04-24 04:12:00,72.0,-99.9,29.98,North,-999,-999.0,-999.0,-999,-99.99,,,-99.99,,2013-04-24 09:12:00,
2013-04-24 04:42:00,72.0,-99.9,29.97,North,-999,-999.0,-999.0,-999,-99.99,,,-99.99,,2013-04-24 09:42:00,
2013-04-24 05:03:00,72.0,-99.9,-100.00,North,-999,-999.0,-999.0,-999,-99.99,,,-99.99,,2013-04-24 10:03:00,
2013-04-24 05:13:00,72.0,-99.9,-100.00,North,-999,-999.0,-999.0,-999,-99.99,,,-99.99,,2013-04-24 10:13:00,
2013-04-24 05:23:00,72.0,-99.9,-100.00,North,-999,-999.0,-999.0,-999,-99.99,,,-99.99,,2013-04-24 10:23:00,
2013-04-24 05:33:00,72.0,-99.9,-100.00,North,-999,-999.0,-999.0,-999,-99.99,,,-99.99,,2013-04-24 10:33:00,
2013-04-24 05:42:00,72.0,-99.9,29.94,North,-999,-999.0,-999.0,-999,-99.99,,,-99.99,,2013-04-24 10:42:00,
2013-04-24 06:12:00,65.0,-99.9,29.99,North,-999,-999.0,-999.0,-999,-99.99,,,-99.99,,2013-04-24 11:12:00,
2013-04-24 06:22:00,62.0,-99.9,-100.00,North,-999,-999.0,-999.0,-999,-99.99,,,-99.99,,2013-04-24 11:22:00,
2013-04-24 06:43:00,60.0,-99.9,30.02,North,-999,-999.0,-999.0,-999,-99.99,,,-99.99,,2013-04-24 11:43:00,
2013-04-24 07:12:00,57.0,-99.9,30.05,North,-999,-999.0,-999.0,-999,-99.99,,,-99.99,,2013-04-24 12:12:00,
2013-04-24 07:32:00,54.0,-99.9,-100.00,North,-999,-999.0,-999.0,-999,-99.99,,,-99.99,,2013-04-24 12:32:00,
2013-04-24 07:43:00,53.0,-99.9,-100.00,North,-999,-999.0,-999.0,-999,-99.99,,,-99.99,,2013-04-24 12:43:00,
2013-04-24 07:52:00,52.0,-99.9,-100.00,North,-999,-999.0,-999.0,-999,-99.99,,,-99.99,,2013-04-24 12:52:00,
2013-04-24 08:12:00,52.0,-99.9,30.12,North,-999,-999.0,-999.0,-999,-99.99,,,-99.99,,2013-04-24 13:12:00,
2013-04-24 08:42:00,52.0,-99.9,30.12,North,-999,-999.0,-999.0,-999,-99.99,,,-99.99,,2013-04-24 13:42:00,
2013-04-24 09:12:00,53.0,-99.9,30.14,North,-999,-999.0,-999.0,-999,-99.99,,,-99.99,,2013-04-24 14:12:00,
2013-04-24 09:42:00,53.0,-99.9,30.15,North,-999,-999.0,-999.0,-999,-99.99,,,-99.99,,2013-04-24 14:42:00,
2013-04-24 09:52:00,53.0,-99.9,-100.00,North,-999,-999.0,-999.0,-999,-99.99,,,-99.99,,2013-04-24 14:52:00,
2013-04-24 10:02:00,54.0,-99.9,-100.00,North,-999,-999.0,-999.0,-999,-99.99,,,-99.99,,2013-04-24 15:02:00,
2013-04-24 10:11:00,53.0,-99.9,-100.00,North,-999,-999.0,-999.0,-999,-99.99,,,-99.99,,2013-04-24 15:11:00,
2013-04-24 10:22:00,53.0,-99.9,-100.00,North,-999,-999.0,-999.0,-999,-99.99,,,-99.99,,2013-04-24 15:22:00,
2013-04-24 10:33:00,53.0,-99.9,-100.00,North,-999,-999.0,-999.0,-999,-99.99,,,-99.99,,2013-04-24 15:33:00,
2013-04-24 10:43:00,53.0,-99.9,30.17,North,-999,-999.0,-999.0,-999,-99.99,,,-99.99,,2013-04-24 15:43:00,
2013-04-24 10:53:00,53.0,-99.9,-100.00,North,-999,-999.0,-999.0,-999,-99.99,,,-99.99,,2013-04-24 15:53:00,
2013-04-24 11:12:00,55.0,-99.9,30.18,North,-999,-999.0,-999.0,-999,-99.99,,,-99.99,,2013-04-24 16:12:00,
2013-04-24 11:32:00,55.0,-99.9,-100.00,North,-999,-999.0,-999.0,-999,-99.99,,,-99.99,,2013-04-24 16:32:00,
2013-04-24 11:42:00,55.0,-99.9,30.18,North,-999,-999.0,-999.0,-999,-99.99,,,-99.99,,2013-04-24 16:42:00,
2013-04-24 12:12:00,55.0,-99.9,30.19,North,-999,-999.0,-999.0,-999,-99.99,,,-99.99,,2013-04-24 17:12:00,
2013-04-24 12:42:00,56.0,-99.9,30.18,North,-999,-999.0,-999.0,-999,-99.99,,,-99.99,,2013-04-24 17:42:00,
2013-04-24 12:52:00,56.0,-99.9,-100.00,North,-999,-999.0,-999.0,-999,-99.99,,,-99.99,,2013-04-24 17:52:00,
2013-04-24 13:02:00,56.0,-99.9,-100.00,North,-999,-999.0,-999.0,-999,-99.99,,,-99.99,,2013-04-24 18:02:00,
2013-04-24 13:12:00,56.0,-99.9,30.17,North,-999,-999.0,-999.0,-999,-99.99,,,-99.99,,2013-04-24 18:12:00,
2013-04-24 13:22:00,56.0,-99.9,-100.00,North,-999,-999.0,-999.0,-999,-99.99,,,-99.99,,2013-04-24 18:22:00,
2013-04-24 13:43:00,58.0,-99.9,30.17,North,-999,-999.0,-999.0,-999,-99.99,,,-99.99,,2013-04-24 18:43:00,
2013-04-24 13:52:00,57.0,-99.9,-100.00,North,-999,-999.0,-999.0,-999,-99.99,,,-99.99,,2013-04-24 18:52:00,
2013-04-24 14:02:00,58.0,-99.9,-100.00,North,-999,-999.0,-999.0,-999,-99.99,,,-99.99,,2013-04-24 19:02:00,
2013-04-24 14:12:00,59.0,-99.9,-100.00,North,-999,-999.0,-999.0,-999,-99.99,,,-99.99,,2013-04-24 19:12:00,
2013-04-24 14:22:00,59.0,-99.9,-100.00,North,-999,-999.0,-999.0,-999,-99.99,,,-99.99,,2013-04-24 19:22:00,
2013-04-24 14:42:00,60.0,-99.9,30.17,North,-999,-999.0,-999.0,-999,-99.99,,,-99.99,,2013-04-24 19:42:00,
2013-04-24 15:11:00,61.0,-99.9,30.16,North,-999,-999.0,-999.0,-999,-99.99,,,-99.99,,2013-04-24 20:11:00,
2013-04-24 15:32:00,61.0,-99.9,-100.00,North,-999,-999.0,-999.0,-999,-99.99,,,-99.99,,2013-04-24 20:32:00,
2013-04-24 15:42:00,61.0,-99.9,30.15,North,-999,-999.0,-999.0,-999,-99.99,,,-99.99,,2013-04-24 20:42:00,
2013-04-24 16:02:00,63.0,-99.9,-100.00,North,-999,-999.0,-999.0,-999,-99.99,,,-99.99,,2013-04-24 21:02:00,
2013-04-24 16:12:00,62.0,-99.9,30.13,North,-999,-999.0,-999.0,-999,-99.99,,,-99.99,,2013-04-24 21:12:00,
2013-04-24 16:43:00,63.0,-99.9,30.13,North,-999,-999.0,-999.0,-999,-99.99,,,-99.99,,2013-04-24 21:43:00,
2013-04-24 16:53:00,64.0,-99.9,-100.00,North,-999,-999.0,-999.0,-999,-99.99,,,-99.99,,2013-04-24 21:53:00,
2013-04-24 17:12:00,65.0,-99.9,30.13,North,-999,-999.0,-999.0,-999,-99.99,,,-99.99,,2013-04-24 22:12:00,
2013-04-24 17:22:00,64.0,-99.9,-100.00,North,-999,-999.0,-999.0,-999,-99.99,,,-99.99,,2013-04-24 22:22:00,
2013-04-24 17:33:00,64.0,-99.9,-100.00,North,-999,-999.0,-999.0,-999,-99.99,,,-99.99,,2013-04-24 22:33:00,
2013-04-24 17:43:00,65.0,-99.9,-100.00,North,-999,-999.0,-999.0,-999,-99.99,,,-99.99,,2013-04-24 22:43:00,
2013-04-24 18:12:00,65.0,-99.9,30.14,North,-999,-999.0,-999.0,-999,-99.99,,,-99.99,,2013-04-24 23:12:00,
2013-04-24 18:42:00,65.0,-99.9,30.14,North,-999,-999.0,-999.0,-999,-99.99,,,-99.99,,2013-04-24 23:42:00,
2013-04-24 18:52:00,65.0,-99.9,-100.00,North,-999,-999.0,-999.0,-999,-99.99,,,-99.99,,2013-04-24 23:52:00,
2013-04-24 19:12:00,64.0,-99.9,30.15,North,-999,-999.0,-999.0,-999,-99.99,,,-99.99,,2013-04-25 00:12:00,
2013-04-24 19:32:00,64.0,-99.9,-100.00,North,-999,-999.0,-999.0,-999,-99.99,,,-99.99,,2013-04-25 00:32:00,
2013-04-24 19:42:00,63.0,-99.9,30.16,North,-999,-999.0,-999.0,-999,-99.99,,,-99.99,,2013-04-25 00:42:00,
2013-04-24 19:52:00,63.0,-99.9,-100.00,North,-999,-999.0,-999.0,-999,-99.99,,,-99.99,,2013-04-25 00:52:00,
2013-04-24 20:02:00,62.0,-99.9,-100.00,North,-999,-999.0,-999.0,-999,-99.99,,,-99.99,,2013-04-25 01:02:00,
2013-04-24 20:12:00,62.0,-99.9,30.18,North,-999,-999.0,-999.0,-999,-99.99,,,-99.99,,2013-04-25 01:12:00,
2013-04-24 20:23:00,62.0,-99.9,-100.00,North,-999,-999.0,-999.0,-999,-99.99,,,-99.99,,2013-04-25 01:23:00,
2013-04-24 20:42:00,61.0,-99.9,30.19,North,-999,-999.0,-999.0,-999,-99.99,,,-99.99,,2013-04-25 01:42:00,
2013-04-24 21:11:00,61.0,-99.9,30.21,North,-999,-999.0,-999.0,-999,-99.99,,,-99.99,,2013-04-25 02:11:00,
2013-04-24 21:22:00,61.0,-99.9,-100.00,North,-999,-999.0,-999.0,-999,-99.99,,,-99.99,,2013-04-25 02:22:00,
2013-04-24 21:32:00,60.0,-99.9,-100.00,North,-999,-999.0,-999.0,-999,-99.99,,,-99.99,,2013-04-25 02:32:00,
2013-04-24 21:42:00,60.0,-99.9,-100.00,North,-999,-999.0,-999.0,-999,-99.99,,,-99.99,,2013-04-25 02:42:00,
2013-04-24 21:52:00,60.0,-99.9,-100.00,North,-999,-999.0,-999.0,-999,-99.99,,,-99.99,,2013-04-25 02:52:00,
2013-04-24 22:11:00,60.0,-99.9,30.21,North,-999,-999.0,-999.0,-999,-99.99,,,-99.99,,2013-04-25 03:11:00,
2013-04-24 22:22:00,59.0,-99.9,-100.00,North,-999,-999.0,-999.0,-999,-99.99,,,-99.99,,2013-04-25 03:22:00,
2013-04-24 22:33:00,59.0,-99.9,-100.00,North,-999,-999.0,-999.0,-999,-99.99,,,-99.99,,2013-04-25 03:33:00,
2013-04-24 22:43:00,59.0,-99.9,30.23,North,-999,-999.0,-999.0,-999,-99.99,,,-99.99,,2013-04-25 03:43:00,
2013-04-24 23:13:00,58.0,-99.9,30.24,North,-999,-999.0,-999.0,-999,-99.99,,,-99.99,,2013-04-25 04:13:00,
2013-04-24 23:33:00,57.0,-99.9,-100.00,North,-999,-999.0,-999.0,-999,-99.99,,,-99.99,,2013-04-25 04:33:00,
2013-04-24 23:43:00,57.0,-99.9,-100.00,North,-999,-999.0,-999.0,-999,-99.99,,,-99.99,,2013-04-25 04:43:00,